Regional Weather Roundup
Issued by NWS Northern Indiana

Home | Current Version | Previous Version | Text Only | Print | Product List | Glossary Off
Versions: 1 2 3 4 5 6 7 8 9 10 11 12 13 14 15 16 17 18 19 20 21 22 23 24 25 26 27 28 29 30 31 32 33 34 35 36 37 38 39 40 41 42 43 44 45 46 47 48 49 50

000
ASUS43 KIWX 290400
RWRIWX

KIWX WEATHER ROUNDUP
NATIONAL WEATHER SERVICE NORTHERN INDIANA
1200 AM EDT FRI JUL 29 2016

NOTE: "FAIR" INDICATES FEW OR NO CLOUDS BELOW 12,000 FEET WITH NO
SIGNIFICANT WEATHER AND/OR OBSTRUCTIONS TO VISIBILITY.

* THESE STATIONS ARE NOT UNDER NWS QUALITY CONTROL. THEY ALSO MAY NOT
  REPORT WEATHER SUCH AS PRECIPITATION OR FOG.

INZ001>027-290500-
NORTHERN INDIANA

CITY           SKY/WX    TMP DP  RH WIND       PRES   REMARKS
VALPARAISO     CLEAR     67  65  93 CALM      29.93S
KNOX*          CLEAR     68  64  88 CALM      29.92S
SOUTH BEND     PTCLDY    69  67  93 CALM      29.93S
GOSHEN         CLOUDY    71  67  87 CALM      29.92S
MONTICELLO*    CLEAR     71  65  82 NE5       29.90F
WARSAW*        PTCLDY    68  66  94 CALM      29.92S
ANGOLA*          N/A     72  64  78 N3        29.92F
FORT WAYNE     MOCLDY    74  68  81 NW6       29.91S

$$
INZ028>050-290500-
CENTRAL INDIANA

CITY           SKY/WX    TMP DP  RH WIND       PRES   REMARKS
LAFAYETTE      CLEAR     71  71 100 CALM      29.89F
KOKOMO*        CLEAR     72  63  73 CALM      29.92R
MUNCIE*        PTCLDY    75  68  78 W5        29.92R
INDIANAPOLIS   PTCLDY    73  69  87 SW5       29.92S

$$
MIZ043>046-050>051-056>058-064>065-071>073-077>080-290500-
SOUTHWEST LOWER MICHIGAN

CITY           SKY/WX    TMP DP  RH WIND       PRES   REMARKS
BATTLE CREEK   CLOUDY    68  68 100 NE6       29.95S
BENTON HARBOR  CLEAR     69  63  81 CALM      29.92S
COLDWATER*     CLOUDY    70  68  92 N3        29.94R
HILLSDALE*     MOCLDY    68  63  84 CALM      29.93F
HOLLAND        CLOUDY    71  67  87 E6        29.93F
GRAND RAPIDS   CLOUDY    69  63  81 E7        29.95S
KALAMAZOO      PTCLDY    70  66  87 CALM      29.94R
STURGIS*       PTCLDY    69  67  95 NE3       29.93R
THREE RIVERS*  MOCLDY    71  68  90 CALM      29.94R

$$
OHZ001>008-015>018-024>025-290500-
NORTHWEST OHIO

CITY           SKY/WX    TMP DP  RH WIND       PRES   REMARKS
DEFIANCE       CLEAR     75  65  70 NE5       29.91S
FINDLAY        CLEAR     69  63  81 SE3       29.90F
TOLEDO EXPRESS CLOUDY    72  67  84 NE3       29.91S
TOLEDO METCALF CLEAR     76  71  85 NE6       29.92R
LIMA           CLEAR     69  67  93 E5        29.91F

$$
AND FOR LAKE MICHIGAN COASTAL AND OPEN LAKE BUOY OBSERVATIONS

STATION/POSITION TEMP    WIND        PRES    VSBY  WAVE
                 AIR SEA DIR/SP/G                  HT/PER
                 (F)     (DEG/KT/KT) (MB)    (MI)  (FT/S)
CALUMET HARBOR            30/  4/  5   N/A
MICHIGAN CITY     73      60/  5/  5   N/A
BURNS HARBOR      75     100/  6/ 13 1013.5R
SAINT JOSEPH      72      CALM  /  4 1013.5S
SOUTH LAKE BUOY   74 75  100/ 10/ 12 1012.3          2/ 6
4 MI NW BRIDGMAN  74 77   80/  6/  8 1012.8R         2
MICHIGAN CITY     75 77   90/  8/ 10   N/A           1/ 3

$$
&&



USA.gov is the U.S. government's official web portal to all federal, state and local government web resources and services.